Regional Weather Roundup
Issued by NWS

Home | Current Version | Previous Version | Graphics & Text | Print | Product List | Glossary On
Versions: 1 2 3 4 5 6 7 8 9 10 11 12 13 14 15 16 17 18 19 20 21 22 23 24 25 26 27 28 29 30 31 32 33 34 35 36 37 38 39 40 41 42 43 44 45 46 47 48 49 50
000
ASUS43 KMKX 261121
RWRWI

WISCONSIN REGIONAL WEATHER ROUNDUP
NATIONAL WEATHER SERVICE MILWAUKEE/SULLIVAN WI
500 AM CST SUN FEB 26 2017

NOTE: "FAIR" INDICATES FEW OR NO CLOUDS BELOW 12,000 FEET WITH NO
SIGNIFICANT WEATHER AND/OR OBSTRUCTIONS TO VISIBILITY.

WIZ001-002-006>008-014>016-023>028-261200-
NORTHWEST WISCONSIN

CITY           SKY/WX    TMP DP  RH WIND       PRES   REMARKS
SUPERIOR ARPT  CLOUDY    26  23  89 SW6       29.67F WCI  19
ASHLAND        LGT SNOW  23  20  88 S10       29.68F VSB 1   WCI  12
HAYWARD        FLURRIES  23  16  74 S9        29.69F WCI  13
SIREN          CLOUDY    25  19  78 SW9       29.70F WCI  16
CUMBERLAND     CLOUDY    25  18  74 SW9       29.71S WCI  15
RICE LAKE      FLURRIES  23  17  80 S8        29.74S WCI  14
CHETEK         CLOUDY    22  16  78 S5        29.74S WCI  16
LADYSMITH      CLOUDY    22  16  78 S10       29.74F WCI  11
EAU CLAIRE     CLOUDY    20  14  77 S3        29.75F
MENOMONIE      CLOUDY    23  17  76 S7        29.75F WCI  15
NEW RICHMOND   CLOUDY    24  17  73 SW9       29.73F WCI  15
OSCEOLA        CLOUDY    26  18  72 S7        29.75F WCI  18
$$

WIZ003>005-009-010-017-018-261200-
NORTH CENTRAL WISCONSIN

CITY           SKY/WX    TMP DP  RH WIND       PRES   REMARKS
MANITOWISH WTR CLOUDY    19  17  93 S12       29.67F FOG     WCI   6
ARBOR VITAE    CLOUDY    19  16  86 SW8         N/A  WCI   9
WOODRUFF       CLOUDY    19  16  86 SW8         N/A  WCI   9
RHINELANDER    CLOUDY    19  14  81 SW10      29.71F WCI   7
EAGLE RIVER    MOCLDY    17  11  79 SW3       29.69F
LAND O LAKES   FLURRIES  17  14  86 S3        29.70F
PHILLIPS       CLOUDY    20  16  84 S10       29.70F WCI   8
TOMAHAWK       CLOUDY    19  15  85 CALM      29.73F
MEDFORD        CLOUDY    20  14  76 S9        29.74S WCI  10
MERRILL        NOT AVBL
$$

WIZ029-030-035-036-043>047-261200-
CENTRAL WISCONSIN

CITY           SKY/WX    TMP DP  RH WIND       PRES   REMARKS
WAUSAU         CLOUDY    20  15  81 S10       29.77F WCI   9
MOSINEE        CLOUDY    21  18  86 S13       29.79F WCI   9
MARSHFIELD     CLOUDY    20  14  77 S10       29.76F WCI   9
STEVENS POINT  CLOUDY    20  14  79 S9        29.81F WCI   9
WAUPACA        CLOUDY    22  16  75 S7        29.86F WCI  14
WAUTOMA        LGT SNOW  21  17  84 S8        29.87F FOG     WCI  11
WISC RAPIDS    CLOUDY    22  17  81 S9        29.82F WCI  12
CAMP DOUGLAS   MOCLDY    24  17  73 S10       29.81F WCI  14
$$

WIZ011>013-019>022-031-037>040-048>050-261200-
NORTHEAST WISCONSIN

CITY           SKY/WX    TMP DP  RH WIND       PRES   REMARKS
ANTIGO         CLOUDY    18  15  86 N10       29.76F WCI   7
SHAWANO        CLOUDY    22  18  83 S3        29.84F
OCONTO         CLOUDY    20  15  82 SW6       29.87F WCI  12
STURGEON BAY   CLOUDY    21  16  81 SW10      29.88F WCI  10
GREEN BAY      CLOUDY    22  19  89 S9        29.88F WCI  12
MANITOWOC      CLOUDY    22  17  81 S6        29.92F WCI  14
APPLETON       CLOUDY    21  14  73 S9        29.85F WCI  11
CLINTONVILLE   CLOUDY    21  18  86 S8        29.85F WCI  12
OSHKOSH        CLOUDY    22  15  75 S12       29.89F WCI  10
$$

WIZ032>034-041-042-053>061-261200-
SOUTHWEST WISCONSIN

CITY           SKY/WX    TMP DP  RH WIND       PRES   REMARKS
LA CROSSE      CLEAR     28  19  69 S10       29.81F WCI  19
SPARTA         MOCLDY    24  18  77 S3        29.83F
VIROQUA        PTCLDY    23  18  81 S8        29.81S WCI  13
BOSCOBEL       CLOUDY    29  18  63 S6        29.87F WCI  23
PRAIRIE DU CHI CLOUDY    31  16  55 S13       29.85F WCI  21
PLATTEVILLE    CLOUDY    27  22  79 S14       29.87F WCI  16
$$

WIZ056-057-062-063-064-067-068-261200-
SOUTH CENTRAL WISCONSIN

CITY           SKY/WX    TMP DP  RH WIND       PRES   REMARKS
REEDSBURG      CLOUDY    24  18  77 S9        29.85F WCI  14
BARABOO/DELLS  CLOUDY    24  18  77 S10       29.85F WCI  13
LONE ROCK      CLOUDY    27  18  69 CALM      29.88F
MINERAL POINT  CLOUDY    28  23  80 S5        29.86F WCI  23
MADISON        CLOUDY    25  18  74 S8        29.90F WCI  16
MIDDLETON      CLOUDY    26  20  80 S3        29.89F
WATERTOWN      CLOUDY    22  18  85 S7        29.92F WCI  14
MONROE         CLOUDY    27  21  80 S16G22    29.90S WCI  14
JANESVILLE     CLOUDY    28  19  69 S8        29.94F WCI  20
$$

WIZ051-052-058>065-066-070>072-261200-
SOUTHEAST WISCONSIN

CITY           SKY/WX    TMP DP  RH WIND       PRES   REMARKS
MILWAUKEE      CLOUDY    24  16  71 S8        29.96F WCI  15
WAUKESHA       MOCLDY    21  16  79 S7        29.95F WCI  13
MILWAUKEE/TIMM CLOUDY    23  14  68 S7        29.96F WCI  15
RACINE         CLOUDY    24  16  71 S6        29.99F WCI  17
KENOSHA        CLOUDY    24  18  77 S8        29.97F WCI  15
FOND DU LAC    CLOUDY    22  14  71 S8        29.90F WCI  12
SHEBOYGAN      CLOUDY    20  13  74 S10       29.93F WCI   9
WEST BEND      CLOUDY    21  18  86 S3        29.92F
JUNEAU         CLOUDY    22  17  81 S6        29.92F WCI  14
$$

LSZ147-162-261200-
LAKE SUPERIOR

STATION/POSITION TIME  TEMP    WIND        PRES    WAVE
                       AIR SEA DIR/SP/G            HT/PER
                 (UTC) (F)     (DEG/KT/KT) (MB)    (FT/S)
DEVILS ISLAND    1100   26     210/ 14/ 18 1005.3F
PORT WING        1040   25     200/  8/ 11 1005.4S
SAXON HARBOR     1030   24     200/ 10/ 15 1005.4F
$$

LMZ867-665-643>646-261200-
LAKE MICHIGAN

STATION/POSITION TIME  TEMP    WIND        PRES    WAVE
                       AIR SEA DIR/SP/G            HT/PER
                 (UTC) (F)     (DEG/KT/KT) (MB)    (FT/S)
NORTHPORT PIER   1040   23        CALM     1011.5S
SISTER BAY       1035   23        CALM       N/A
ALGOMA LAKESHORE 0856          230/  8/ 15   N/A
KEWAUNEE LAKESHO 1054   23     230/  5/  9 1012.2F
SHEBOYGAN LAKESH 1100   23     200/ 12/ 13 1014.6F
PORT WASHINGTON  1040   22     210/  5/  7 1015.6F
MILWAUKEE LAKESH 1100   25     190/  9/ 11   N/A
KENOSHA   LAKESH 1100   25     190/  8/ 12 1015.2
$$

TC  - TEMPERATURE IN CELSIUS
VSB - VISIBILITY IN STATUTE MILES
WCI - WIND CHILL INDEX
HX  - HEAT INDEX





USA.gov is the U.S. government's official web portal to all federal, state and local government web resources and services.